| time (UTC) | temp F | wind direction | speed MPH | gust MPH | rain 1hr in | rain 24hr in | rain mn in | humidity % | barometer mb |
| 20260505204448 | 58 | 0 | 0.0 | 0.0 | 0.00 | 0.00 | 0.00 | ||
| 20260505203445 | 58 | 0 | 0.0 | 0.0 | 0.00 | 0.00 | 0.00 | ||
| 20260505202944 | 58 | 0 | 0.0 | 0.0 | 0.00 | 0.00 | 0.00 | ||
| 20260505201441 | 58 | 0 | 0.0 | 0.0 | 0.00 | 0.00 | 0.00 | ||
| 20260505200940 | 58 | 0 | 0.0 | 0.0 | 0.00 | 0.00 | 0.00 | ||
| 20260505200439 | 58 | 0 | 0.0 | 0.0 | 0.00 | 0.00 | 0.00 | ||
| 20260505194939 | 58 | 245 | 0.0 | 3.0 | 0.00 | 0.00 | 0.00 | ||
| 20260505193934 | 58 | 0 | 0.0 | 0.0 | 0.00 | 0.00 | 0.00 | ||
| 20260505193433 | 58 | 0 | 0.0 | 7.0 | 0.00 | 0.00 | 0.00 | ||
| 20260505191930 | 58 | 259 | 5.0 | 8.0 | 0.00 | 0.00 | 0.00 | ||
| 20260505191429 | 58 | 271 | 6.0 | 8.0 | 0.00 | 0.00 | 0.00 | ||
| 20260505190928 | 58 | 277 | 5.0 | 8.0 | 0.00 | 0.00 | 0.00 | ||
| 20260505190427 | 58 | 267 | 7.0 | 8.0 | 0.00 | 0.00 | 0.00 | ||
| 20260505185926 | 57 | 267 | 6.0 | 8.0 | 0.00 | 0.00 | 0.00 | ||
| 20260505185425 | 57 | 263 | 7.0 | 10.0 | 0.00 | 0.00 | 0.00 | ||
| 20260505183421 | 57 | 268 | 7.0 | 9.0 | 0.00 | 0.00 | 0.00 | ||
| 20260505182920 | 57 | 266 | 6.0 | 9.0 | 0.00 | 0.00 | 0.00 | ||
| 20260505181417 | 57 | 252 | 5.0 | 7.0 | 0.00 | 0.00 | 0.00 | ||
| 20260505180917 | 57 | 264 | 5.0 | 9.0 | 0.00 | 0.00 | 0.00 | ||
| 20260505180415 | 57 | 263 | 5.0 | 9.0 | 0.00 | 0.00 | 0.00 | ||
| 20260505175413 | 57 | 263 | 7.0 | 8.0 | 0.00 | 0.00 | 0.00 | ||
| 20260505174912 | 57 | 253 | 7.0 | 11.0 | 0.00 | 0.00 | 0.00 | ||
| 20260505171906 | 56 | 257 | 8.0 | 11.0 | 0.00 | 0.00 | 0.00 | ||
| 20260505171406 | 56 | 253 | 7.0 | 10.0 | 0.00 | 0.00 | 0.00 | ||
| 20260505170906 | 56 | 261 | 8.0 | 10.0 | 0.00 | 0.00 | 0.00 | ||
| 20260505165401 | 56 | 257 | 8.0 | 12.0 | 0.00 | 0.00 | 0.00 | ||
| 20260505164902 | 56 | 261 | 8.0 | 12.0 | 0.00 | 0.00 | 0.00 | ||
| 20260505164400 | 56 | 254 | 11.0 | 12.0 | 0.00 | 0.00 | 0.00 | ||
| 20260505163859 | 56 | 245 | 7.0 | 10.0 | 0.00 | 0.00 | 0.00 | ||
| 20260505162355 | 56 | 260 | 7.0 | 10.0 | 0.00 | 0.00 | 0.00 | ||
| 20260505161854 | 56 | 263 | 7.0 | 10.0 | 0.00 | 0.00 | 0.00 | ||
| 20260505161353 | 55 | 256 | 7.0 | 10.0 | 0.00 | 0.00 | 0.00 | ||
| 20260505160852 | 55 | 249 | 8.0 | 9.0 | 0.00 | 0.00 | 0.00 | ||
| 20260505160351 | 55 | 238 | 6.0 | 8.0 | 0.00 | 0.00 | 0.00 | ||
| 20260505152845 | 54 | 191 | 0.0 | 4.0 | 0.00 | 0.00 | 0.00 | ||
| 20260505152344 | 54 | 0 | 0.0 | 0.0 | 0.00 | 0.00 | 0.00 | ||
| 20260505151842 | 54 | 0 | 0.0 | 0.0 | 0.00 | 0.00 | 0.00 | ||
| 20260505150842 | 54 | 228 | 0.0 | 7.0 | 0.00 | 0.00 | 0.00 | ||
| 20260505124812 | 54 | 0 | 0.0 | 0.0 | 0.00 | 0.00 | 0.00 | ||
| 20260505124311 | 54 | 0 | 0.0 | 0.0 | 0.00 | 0.00 | 0.00 | ||
| 20260505123810 | 54 | 0 | 0.0 | 0.0 | 0.00 | 0.00 | 0.00 | ||
| 20260505123309 | 54 | 0 | 0.0 | 5.0 | 0.00 | 0.00 | 0.00 | ||
| 20260505122808 | 54 | 0 | 0.0 | 5.0 | 0.00 | 0.00 | 0.00 | ||
| 20260505121307 | 54 | 239 | 0.0 | 3.0 | 0.00 | 0.00 | 0.00 | ||
| 20260505120804 | 54 | 229 | 0.0 | 12.0 | 0.00 | 0.00 | 0.00 | ||
| 20260505120424 | 54 | 233 | 5.0 | 12.0 | 0.00 | 0.00 | 0.00 | ||
| 20260505120303 | 54 | 233 | 5.0 | 12.0 | 0.00 | 0.00 | 0.00 | ||
| 20260505115301 | 54 | 256 | 9.0 | 10.0 | 0.00 | 0.00 | 0.00 | ||
| 20260505114259 | 54 | 228 | 6.0 | 9.0 | 0.00 | 0.00 | 0.00 | ||
| 20260505113758 | 54 | 217 | 6.0 | 9.0 | 0.00 | 0.00 | 0.00 | ||
| 20260505112255 | 54 | 236 | 6.0 | 11.0 | 0.00 | 0.00 | 0.00 | ||
| 20260505111755 | 53 | 238 | 7.0 | 10.0 | 0.00 | 0.00 | 0.00 | ||
| 20260505110752 | 53 | 211 | 8.0 | 11.0 | 0.00 | 0.00 | 0.00 | ||
| 20260505101743 | 54 | 238 | 9.0 | 13.0 | 0.00 | 0.00 | 0.00 | ||
| 20260505100740 | 54 | 238 | 8.0 | 15.0 | 0.00 | 0.00 | 0.00 | ||
| 20260505100240 | 54 | 233 | 11.0 | 15.0 | 0.00 | 0.00 | 0.00 | ||
| 20260505095237 | 54 | 254 | 8.0 | 13.0 | 0.00 | 0.00 | 0.00 | ||
| 20260505093734 | 54 | 246 | 9.0 | 16.0 | 0.00 | 0.00 | 0.00 | ||
| 20260505092732 | 54 | 232 | 9.0 | 16.0 | 0.00 | 0.00 | 0.00 | ||
| 20260505085726 | 54 | 249 | 10.0 | 17.0 | 0.00 | 0.00 | 0.00 | ||
| 20260505085225 | 54 | 238 | 11.0 | 17.0 | 0.00 | 0.00 | 0.00 | ||
| 20260505084226 | 54 | 235 | 11.0 | 17.0 | 0.00 | 0.00 | 0.00 | ||
| 20260505083722 | 54 | 245 | 12.0 | 17.0 | 0.00 | 0.00 | 0.00 | ||
| 20260505083221 | 54 | 240 | 13.0 | 17.0 | 0.00 | 0.00 | 0.00 | ||
| 20260505082721 | 54 | 236 | 13.0 | 17.0 | 0.00 | 0.00 | 0.00 | ||
| 20260505082219 | 54 | 242 | 9.0 | 17.0 | 0.00 | 0.00 | 0.00 | ||
| 20260505081217 | 54 | 242 | 13.0 | 19.0 | 0.00 | 0.00 | 0.00 | ||
| 20260505075213 | 54 | 232 | 12.0 | 19.0 | 0.00 | 0.00 | 0.00 | ||
| 20260505074211 | 54 | 249 | 14.0 | 19.0 | 0.00 | 0.00 | 0.00 | ||
| 20260505072708 | 54 | 240 | 11.0 | 14.0 | 0.00 | 0.00 | 0.00 | ||
| 20260505072207 | 54 | 247 | 9.0 | 14.0 | 0.00 | 0.00 | 0.00 | ||
| 20260505070203 | 54 | 243 | 9.0 | 15.0 | 0.00 | 0.00 | 0.00 | ||
| 20260505065702 | 54 | 250 | 10.0 | 15.0 | 0.00 | 0.00 | 0.00 | ||
| 20260505064700 | 54 | 247 | 9.0 | 14.0 | 0.00 | 0.00 | 0.00 | ||
| 20260505064159 | 54 | 245 | 10.0 | 12.0 | 0.00 | 0.00 | 0.00 | ||
| 20260505063658 | 54 | 224 | 9.0 | 11.0 | 0.00 | 0.00 | 0.00 | ||
| 20260505063158 | 54 | 228 | 7.0 | 12.0 | 0.00 | 0.00 | 0.00 | ||
| 20260505062656 | 54 | 250 | 9.0 | 12.0 | 0.00 | 0.00 | 0.00 | ||
| 20260505061654 | 55 | 259 | 8.0 | 14.0 | 0.00 | 0.00 | 0.00 | ||
| 20260505060653 | 55 | 242 | 9.0 | 14.0 | 0.00 | 0.00 | 0.00 | ||
| 20260505052645 | 55 | 212 | 7.0 | 13.0 | 0.00 | 0.00 | 0.00 | ||
| 20260505052145 | 55 | 232 | 8.0 | 13.0 | 0.00 | 0.00 | 0.00 | ||
| 20260505051642 | 55 | 232 | 8.0 | 13.0 | 0.00 | 0.00 | 0.00 | ||
| 20260505051141 | 55 | 240 | 10.0 | 15.0 | 0.00 | 0.00 | 0.00 | ||
| 20260505041630 | 56 | 245 | 8.0 | 10.0 | 0.00 | 0.00 | 0.00 | ||
| 20260505041130 | 56 | 235 | 5.0 | 10.0 | 0.00 | 0.00 | 0.00 | ||
| 20260505040127 | 56 | 239 | 7.0 | 13.0 | 0.00 | 0.00 | 0.00 | ||
| 20260505035125 | 56 | 242 | 8.0 | 12.0 | 0.00 | 0.00 | 0.00 | ||
| 20260505031618 | 56 | 210 | 9.0 | 12.0 | 0.00 | 0.00 | 0.00 | ||
| 20260505031118 | 56 | 225 | 8.0 | 12.0 | 0.00 | 0.00 | 0.00 | ||
| 20260505030616 | 56 | 225 | 8.0 | 12.0 | 0.00 | 0.00 | 0.00 | ||
| 20260505025616 | 56 | 239 | 7.0 | 15.0 | 0.00 | 0.00 | 0.00 | ||
| 20260505025114 | 56 | 229 | 9.0 | 15.0 | 0.00 | 0.00 | 0.00 | ||
| 20260505024612 | 56 | 226 | 11.0 | 14.0 | 0.00 | 0.00 | 0.00 | ||
| 20260505023109 | 57 | 221 | 9.0 | 13.0 | 0.00 | 0.00 | 0.00 | ||
| 20260505022608 | 57 | 232 | 9.0 | 15.0 | 0.00 | 0.00 | 0.00 | ||
| 20260505021606 | 57 | 233 | 10.0 | 15.0 | 0.00 | 0.00 | 0.00 | ||
| 20260505021105 | 57 | 224 | 9.0 | 14.0 | 0.00 | 0.00 | 0.00 | ||
| 20260505020604 | 57 | 240 | 9.0 | 12.0 | 0.00 | 0.00 | 0.00 | ||
| 20260505015602 | 57 | 245 | 8.0 | 18.0 | 0.00 | 0.00 | 0.00 | ||
| 20260505015101 | 57 | 233 | 11.0 | 18.0 | 0.00 | 0.00 | 0.00 | ||
| 20260505014059 | 57 | 257 | 14.0 | 20.0 | 0.00 | 0.00 | 0.00 | ||
| 20260505013559 | 57 | 249 | 15.0 | 20.0 | 0.00 | 0.00 | 0.00 | ||
| 20260505011053 | 60 | 249 | 13.0 | 20.0 | 0.00 | 0.00 | 0.00 | ||
| 20260505010052 | 60 | 239 | 15.0 | 18.0 | 0.00 | 0.00 | 0.00 | ||
| 20260505005050 | 60 | 231 | 13.0 | 19.0 | 0.00 | 0.00 | 0.00 | ||
| 20260505004048 | 60 | 246 | 13.0 | 19.0 | 0.00 | 0.00 | 0.00 | ||
| 20260505001542 | 60 | 240 | 16.0 | 23.0 | 0.00 | 0.00 | 0.00 | ||
| 20260505000540 | 60 | 238 | 16.0 | 23.0 | 0.00 | 0.00 | 0.00 | ||
| 20260504235037 | 60 | 246 | 16.0 | 23.0 | 0.00 | 0.00 | 0.00 | ||
| 20260504233034 | 60 | 250 | 17.0 | 25.0 | 0.00 | 0.00 | 0.00 | ||
| 20260504225025 | 61 | 253 | 15.0 | 22.0 | 0.00 | 0.00 | 0.00 | ||
| 20260504223522 | 61 | 236 | 16.0 | 22.0 | 0.00 | 0.00 | 0.00 | ||
| 20260504221518 | 61 | 247 | 14.0 | 21.0 | 0.00 | 0.00 | 0.00 | ||
| 20260504220016 | 61 | 252 | 14.0 | 20.0 | 0.00 | 0.00 | 0.00 | ||
| 20260504215013 | 61 | 247 | 15.0 | 22.0 | 0.00 | 0.00 | 0.00 | ||
| 20260504214512 | 61 | 238 | 13.0 | 22.0 | 0.00 | 0.00 | 0.00 | ||
| 20260504214012 | 61 | 243 | 14.0 | 21.0 | 0.00 | 0.00 | 0.00 | ||
| 20260504212508 | 60 | 254 | 14.0 | 20.0 | 0.00 | 0.00 | 0.00 | ||
| 20260504212007 | 60 | 243 | 14.0 | 20.0 | 0.00 | 0.00 | 0.00 | ||
| 20260504211507 | 60 | 246 | 15.0 | 20.0 | 0.00 | 0.00 | 0.00 | ||
| 20260504211004 | 60 | 242 | 15.0 | 20.0 | 0.00 | 0.00 | 0.00 | ||
| 20260504210504 | 60 | 242 | 13.0 | 19.0 | 0.00 | 0.00 | 0.00 | ||
| 20260504205504 | 60 | 245 | 14.0 | 17.0 | 0.00 | 0.00 | 0.00 |